TimeEDT,TemperatureF,Dew PointF,Humidity,Sea Level PressureIn,VisibilityMPH,Wind Direction,Wind SpeedMPH,Gust SpeedMPH,PrecipitationIn,Events,Conditions,WindDirDegrees,DateUTC
12:15 AM,60.8,47.5,62,29.64,10.0,SE,8.1,-,N/A,,Clear,140,2012-10-18 04:15:00
12:35 AM,60.4,47.3,62,29.63,10.0,SE,6.9,-,N/A,,Mostly Cloudy,140,2012-10-18 04:35:00
12:55 AM,61.3,46.4,58,29.63,10.0,SSE,6.9,-,N/A,,Mostly Cloudy,150,2012-10-18 04:55:00
1:15 AM,60.8,45.9,58,29.62,10.0,SSE,9.2,-,N/A,,Scattered Clouds,150,2012-10-18 05:15:00
1:35 AM,61.0,45.5,57,29.62,10.0,SE,9.2,-,N/A,,Mostly Cloudy,130,2012-10-18 05:35:00
1:55 AM,60.3,44.8,57,29.61,10.0,SE,11.5,-,N/A,,Scattered Clouds,130,2012-10-18 05:55:00
2:15 AM,60.8,44.1,54,29.60,10.0,SE,13.8,18.4,N/A,,Clear,140,2012-10-18 06:15:00
2:35 AM,60.8,43.7,53,29.60,10.0,SE,8.1,-,N/A,,Clear,130,2012-10-18 06:35:00
2:55 AM,60.3,43.7,54,29.59,10.0,SE,10.4,17.3,N/A,,Clear,130,2012-10-18 06:55:00
3:15 AM,59.9,43.9,55,29.58,10.0,SE,10.4,19.6,N/A,,Clear,130,2012-10-18 07:15:00
3:35 AM,59.9,44.2,56,29.59,10.0,SSE,9.2,17.3,N/A,,Clear,150,2012-10-18 07:35:00
3:55 AM,60.3,44.6,56,29.59,10.0,SSE,12.7,19.6,N/A,,Clear,150,2012-10-18 07:55:00
4:15 AM,59.5,44.6,58,29.58,10.0,SSE,13.8,18.4,N/A,,Clear,150,2012-10-18 08:15:00
4:35 AM,59.5,44.6,58,29.57,10.0,SE,13.8,-,N/A,,Scattered Clouds,140,2012-10-18 08:35:00
4:55 AM,59.9,44.6,57,29.56,10.0,SE,15.0,18.4,N/A,,Mostly Cloudy,140,2012-10-18 08:55:00
5:15 AM,59.2,44.2,58,29.56,10.0,SE,15.0,19.6,N/A,,Scattered Clouds,140,2012-10-18 09:15:00
5:35 AM,59.0,44.2,58,29.56,10.0,SSE,13.8,20.7,N/A,,Scattered Clouds,150,2012-10-18 09:35:00
5:55 AM,59.0,44.4,58,29.56,10.0,SSE,15.0,20.7,N/A,,Mostly Cloudy,150,2012-10-18 09:55:00
6:15 AM,59.0,44.6,59,29.56,10.0,SSE,17.3,21.9,N/A,,Mostly Cloudy,150,2012-10-18 10:15:00
6:35 AM,59.0,44.6,59,29.56,10.0,SSE,17.3,-,N/A,,Mostly Cloudy,160,2012-10-18 10:35:00
6:55 AM,59.4,45.0,59,29.54,10.0,SSE,16.1,23.0,N/A,,Mostly Cloudy,150,2012-10-18 10:55:00
7:22 AM,59.0,46.4,63,29.52,10.0,SE,13.8,24.2,N/A,,Mostly Cloudy,140,2012-10-18 11:22:00
7:35 AM,58.8,46.2,63,29.54,10.0,SSE,15.0,20.7,N/A,,Overcast,160,2012-10-18 11:35:00
7:50 AM,57.2,46.4,67,29.54,10.0,SSE,15.0,23.0,N/A,,Mostly Cloudy,160,2012-10-18 11:50:00
7:55 AM,58.1,46.8,66,29.54,10.0,SSE,15.0,19.6,N/A,,Mostly Cloudy,160,2012-10-18 11:55:00
8:15 AM,59.0,47.3,65,29.55,10.0,South,17.3,20.7,N/A,,Overcast,170,2012-10-18 12:15:00
8:50 AM,60.8,48.2,63,29.56,10.0,South,20.7,31.1,N/A,,Overcast,190,2012-10-18 12:50:00
9:50 AM,53.6,48.2,82,29.61,4.0,WSW,19.6,33.4,N/A,Rain,Light Rain,250,2012-10-18 13:50:00
10:50 AM,53.6,48.2,82,29.64,10.0,SW,13.8,23.0,N/A,,Mostly Cloudy,230,2012-10-18 14:50:00
11:50 AM,55.4,44.6,67,29.66,10.0,SW,15.0,26.5,N/A,,Scattered Clouds,220,2012-10-18 15:50:00
12:50 PM,59.0,41.0,51,29.68,10.0,SW,18.4,29.9,N/A,,Scattered Clouds,220,2012-10-18 16:50:00
1:50 PM,60.8,37.4,42,29.67,10.0,SW,17.3,23.0,N/A,,Scattered Clouds,230,2012-10-18 17:50:00
2:50 PM,62.6,33.8,34,29.67,10.0,WSW,16.1,23.0,N/A,,Scattered Clouds,240,2012-10-18 18:50:00
3:50 PM,62.6,32.0,32,29.67,10.0,WSW,13.8,23.0,N/A,,Scattered Clouds,240,2012-10-18 19:50:00
4:50 PM,62.6,30.2,30,29.67,10.0,SW,16.1,23.0,N/A,,Scattered Clouds,220,2012-10-18 20:50:00
9:15 PM,48.7,31.8,52,29.74,10.0,SSE,4.6,-,N/A,,Clear,160,2012-10-19 01:15:00
9:35 PM,48.4,31.8,53,29.74,10.0,SE,5.8,-,N/A,,Clear,140,2012-10-19 01:35:00
9:55 PM,48.2,32.0,54,29.74,10.0,SE,4.6,-,N/A,,Clear,140,2012-10-19 01:55:00
10:15 PM,46.4,32.0,57,29.75,10.0,SE,5.8,-,N/A,,Clear,130,2012-10-19 02:15:00
10:35 PM,47.3,32.2,56,29.74,10.0,SE,4.6,-,N/A,,Clear,130,2012-10-19 02:35:00
11:15 PM,46.9,32.0,56,29.72,10.0,SE,5.8,-,N/A,,Clear,130,2012-10-19 03:15:00
11:35 PM,46.8,32.5,58,29.72,10.0,SE,5.8,-,N/A,,Clear,130,2012-10-19 03:35:00
11:55 PM,46.2,33.8,62,29.71,10.0,SE,5.8,-,N/A,,Clear,130,2012-10-19 03:55:00